| time (UTC) | temp C | wind direction | speed KPH | gust KPH | rain 1hr cm | rain 24hr cm | rain mn cm | humidity % | barometer mb |
| 20260509013657 | 13 | 0 | 0.0 | 0.0 | 0.03 | 0.03 | 0.03 | 83 | 1009.6 |
| 20260509013201 | 13 | 5 | 0.0 | 1.6 | 0.03 | 0.03 | 0.03 | 82 | 1009.4 |
| 20260509013157 | 13 | 0 | 0.0 | 1.6 | 0.03 | 0.03 | 0.03 | 82 | 1009.5 |
| 20260509012157 | 13 | 336 | 0.0 | 1.6 | 0.03 | 0.03 | 0.03 | 82 | 1009.4 |
| 20260509011656 | 13 | 336 | 0.0 | 4.8 | 0.03 | 0.03 | 0.03 | 82 | 1009.4 |
| 20260509011156 | 13 | 337 | 1.6 | 4.8 | 0.03 | 0.03 | 0.03 | 83 | 1009.4 |
| 20260509010656 | 13 | 340 | 1.6 | 4.8 | 0.03 | 0.03 | 0.03 | 84 | 1009.3 |
| 20260509010159 | 13 | 146 | 0.0 | 3.2 | 0.00 | 0.00 | 0.00 | 85 | 1009.2 |
| 20260509010155 | 13 | 330 | 0.0 | 4.8 | 0.00 | 0.00 | 0.00 | 85 | 1009.3 |
| 20260509005200 | 13 | 150 | 0.0 | 0.0 | 0.00 | 0.00 | 0.00 | 85 | 1008.9 |
| 20260509005154 | 13 | 151 | 0.0 | 0.0 | 0.00 | 0.00 | 0.00 | 84 | 1009.1 |
| 20260509004654 | 13 | 151 | 0.0 | 0.0 | 0.00 | 0.00 | 0.00 | 85 | 1009.0 |
| 20260509003655 | 13 | 151 | 0.0 | 0.0 | 0.00 | 0.00 | 0.00 | 84 | 1008.8 |
| 20260509003153 | 13 | 151 | 0.0 | 0.0 | 0.00 | 0.00 | 0.00 | 83 | 1008.8 |
| 20260509002657 | 13 | 150 | 0.0 | 1.6 | 0.00 | 0.00 | 0.00 | 83 | 1008.8 |
| 20260509002652 | 13 | 150 | 0.0 | 1.6 | 0.00 | 0.00 | 0.00 | 83 | 1008.8 |
| 20260509001759 | 14 | 153 | 0.0 | 1.6 | 0.00 | 0.00 | 0.00 | 81 | 1008.9 |
| 20260509001653 | 13 | 151 | 0.0 | 1.6 | 0.00 | 0.00 | 0.00 | 83 | 1008.7 |
| 20260509001157 | 13 | 152 | 0.0 | 1.6 | 0.00 | 0.00 | 0.00 | 82 | 1008.9 |
| 20260509001153 | 13 | 152 | 0.0 | 1.6 | 0.00 | 0.00 | 0.00 | 82 | 1008.8 |
| 20260509000258 | 14 | 153 | 0.0 | 1.6 | 0.00 | 0.00 | 0.00 | 81 | 1009.1 |
| 20260508235757 | 14 | 152 | 0.0 | 1.6 | 0.00 | 0.00 | 0.00 | 80 | 1009.0 |
| 20260508234651 | 15 | 153 | 0.0 | 1.6 | 0.00 | 0.00 | 0.00 | 78 | 1009.0 |
| 20260508234150 | 15 | 153 | 0.0 | 1.6 | 0.00 | 0.00 | 0.00 | 78 | 1009.0 |
| 20260508233650 | 15 | 155 | 0.0 | 1.6 | 0.00 | 0.00 | 0.00 | 76 | 1009.0 |
| 20260508233155 | 15 | 247 | 0.0 | 0.0 | 0.00 | 0.00 | 0.00 | 71 | 1009.0 |
| 20260508233150 | 15 | 247 | 0.0 | 0.0 | 0.00 | 0.00 | 0.00 | 73 | 1009.0 |
| 20260508232151 | 16 | 247 | 0.0 | 0.0 | 0.00 | 0.00 | 0.00 | 70 | 1009.0 |
| 20260508231650 | 16 | 246 | 0.0 | 0.0 | 0.00 | 0.00 | 0.00 | 70 | 1008.9 |
| 20260508231151 | 16 | 246 | 0.0 | 0.0 | 0.00 | 0.00 | 0.00 | 69 | 1008.7 |
| 20260508230653 | 16 | 247 | 0.0 | 0.0 | 0.00 | 0.00 | 0.00 | 69 | 1008.7 |
| 20260508230649 | 16 | 247 | 0.0 | 0.0 | 0.00 | 0.00 | 0.00 | 69 | 1008.8 |
| 20260508225649 | 16 | 247 | 0.0 | 0.0 | 0.00 | 0.00 | 0.00 | 67 | 1008.7 |
| 20260508225149 | 16 | 247 | 0.0 | 0.0 | 0.00 | 0.00 | 0.00 | 62 | 1008.6 |
| 20260508224648 | 17 | 247 | 0.0 | 0.0 | 0.00 | 0.00 | 0.00 | 66 | 1008.5 |
| 20260508224148 | 17 | 246 | 0.0 | 0.0 | 0.00 | 0.00 | 0.00 | 60 | 1008.6 |
| 20260508223648 | 17 | 247 | 0.0 | 0.0 | 0.00 | 0.00 | 0.00 | 56 | 1008.6 |
| 20260508223153 | 17 | 246 | 0.0 | 0.0 | 0.00 | 0.00 | 0.00 | 56 | 1008.6 |
| 20260508223149 | 17 | 246 | 0.0 | 0.0 | 0.00 | 0.00 | 0.00 | 55 | 1008.7 |
| 20260508222148 | 17 | 247 | 0.0 | 0.0 | 0.00 | 0.00 | 0.00 | 57 | 1008.7 |
| 20260508221648 | 17 | 247 | 0.0 | 1.6 | 0.00 | 0.00 | 0.00 | 57 | 1008.7 |
| 20260508221148 | 17 | 247 | 0.0 | 1.6 | 0.00 | 0.00 | 0.00 | 53 | 1008.7 |
| 20260508220648 | 17 | 246 | 0.0 | 3.2 | 0.00 | 0.00 | 0.00 | 53 | 1008.7 |
| 20260508220146 | 17 | 246 | 1.6 | 4.8 | 0.00 | 0.00 | 0.00 | 53 | 1008.7 |
| 20260508215646 | 17 | 249 | 1.6 | 4.8 | 0.00 | 0.00 | 0.00 | 53 | 1008.7 |
| 20260508215147 | 18 | 242 | 1.6 | 6.4 | 0.00 | 0.00 | 0.00 | 52 | 1008.6 |
| 20260508214646 | 18 | 243 | 3.2 | 6.4 | 0.00 | 0.00 | 0.00 | 52 | 1008.6 |
| 20260508214150 | 18 | 221 | 3.2 | 8.0 | 0.00 | 0.00 | 0.00 | 51 | 1008.5 |
| 20260508214146 | 18 | 237 | 3.2 | 8.0 | 0.00 | 0.00 | 0.00 | 52 | 1008.6 |
| 20260508213145 | 18 | 245 | 3.2 | 6.4 | 0.00 | 0.00 | 0.00 | 50 | 1008.7 |
| 20260508212651 | 18 | 240 | 3.2 | 6.4 | 0.00 | 0.00 | 0.00 | 50 | 1008.7 |
| 20260508212646 | 18 | 232 | 3.2 | 6.4 | 0.00 | 0.00 | 0.00 | 50 | 1008.8 |
| 20260508211649 | 18 | 233 | 4.8 | 9.7 | 0.00 | 0.00 | 0.00 | 49 | 1008.7 |
| 20260508211645 | 18 | 238 | 4.8 | 12.9 | 0.00 | 0.00 | 0.00 | 49 | 1008.8 |
| 20260508210644 | 18 | 232 | 6.4 | 12.9 | 0.00 | 0.00 | 0.00 | 49 | 1008.9 |
| 20260508210148 | 18 | 228 | 6.4 | 14.5 | 0.00 | 0.00 | 0.00 | 48 | 1009.1 |
| 20260508210144 | 18 | 232 | 6.4 | 14.5 | 0.00 | 0.00 | 0.00 | 49 | 1009.0 |
| 20260508205144 | 18 | 236 | 8.0 | 19.3 | 0.00 | 0.00 | 0.00 | 49 | 1009.2 |
| 20260508204644 | 18 | 228 | 8.0 | 19.3 | 0.00 | 0.00 | 0.00 | 47 | 1009.2 |
| 20260508204143 | 18 | 238 | 8.0 | 16.1 | 0.00 | 0.00 | 0.00 | 48 | 1009.2 |
| 20260508203644 | 18 | 236 | 8.0 | 16.1 | 0.00 | 0.00 | 0.00 | 47 | 1009.4 |
| 20260508203145 | 18 | 230 | 9.7 | 19.3 | 0.00 | 0.00 | 0.00 | 46 | 1009.4 |
| 20260508202643 | 18 | 223 | 11.3 | 19.3 | 0.00 | 0.00 | 0.00 | 45 | 1009.4 |
| 20260508202148 | 18 | 214 | 14.5 | 22.5 | 0.00 | 0.00 | 0.00 | 45 | 1009.4 |
| 20260508202143 | 18 | 238 | 11.3 | 22.5 | 0.00 | 0.00 | 0.00 | 44 | 1009.5 |
| 20260508201143 | 18 | 231 | 14.5 | 22.5 | 0.00 | 0.00 | 0.00 | 45 | 1009.5 |
| 20260508200646 | 18 | 214 | 14.5 | 27.4 | 0.00 | 0.00 | 0.00 | 44 | 1009.5 |
| 20260508200642 | 18 | 232 | 16.1 | 27.4 | 0.00 | 0.00 | 0.00 | 44 | 1009.4 |
| 20260508195648 | 19 | 227 | 14.5 | 29.0 | 0.00 | 0.00 | 0.00 | 43 | 1009.6 |
| 20260508195641 | 18 | 246 | 12.9 | 25.7 | 0.00 | 0.00 | 0.00 | 45 | 1009.6 |
| 20260508195144 | 19 | 243 | 16.1 | 27.4 | 0.00 | 0.00 | 0.00 | 44 | 1009.7 |
| 20260508194641 | 19 | 234 | 16.1 | 29.0 | 0.00 | 0.00 | 0.00 | 43 | 1009.6 |
| 20260508193641 | 19 | 241 | 11.3 | 25.7 | 0.00 | 0.00 | 0.00 | 45 | 1009.7 |
| 20260508193141 | 19 | 241 | 12.9 | 25.7 | 0.00 | 0.00 | 0.00 | 44 | 1009.7 |
| 20260508192639 | 19 | 242 | 16.1 | 25.7 | 0.00 | 0.00 | 0.00 | 44 | 1009.8 |
| 20260508192145 | 20 | 230 | 20.9 | 35.4 | 0.00 | 0.00 | 0.00 | 42 | 1009.9 |
| 20260508192140 | 20 | 231 | 17.7 | 30.6 | 0.00 | 0.00 | 0.00 | 43 | 1009.9 |
| 20260508191144 | 21 | 195 | 17.7 | 37.0 | 0.00 | 0.00 | 0.00 | 42 | 1010.0 |
| 20260508191140 | 21 | 244 | 22.5 | 37.0 | 0.00 | 0.00 | 0.00 | 41 | 1010.0 |
| 20260508190145 | 20 | 244 | 16.1 | 27.4 | 0.00 | 0.00 | 0.00 | 44 | 1010.2 |
| 20260508190141 | 20 | 212 | 16.1 | 30.6 | 0.00 | 0.00 | 0.00 | 43 | 1010.1 |
| 20260508185141 | 20 | 203 | 11.3 | 27.4 | 0.00 | 0.00 | 0.00 | 44 | 1010.5 |
| 20260508184640 | 20 | 236 | 11.3 | 27.4 | 0.00 | 0.00 | 0.00 | 43 | 1010.5 |
| 20260508184140 | 20 | 265 | 14.5 | 30.6 | 0.00 | 0.00 | 0.00 | 44 | 1010.5 |
| 20260508183640 | 20 | 241 | 14.5 | 30.6 | 0.00 | 0.00 | 0.00 | 45 | 1010.5 |
| 20260508183139 | 20 | 240 | 11.3 | 29.0 | 0.00 | 0.00 | 0.00 | 45 | 1010.6 |
| 20260508182639 | 19 | 278 | 11.3 | 24.1 | 0.00 | 0.00 | 0.00 | 50 | 1010.7 |
| 20260508182140 | 19 | 242 | 11.3 | 24.1 | 0.00 | 0.00 | 0.00 | 47 | 1010.8 |
| 20260508181640 | 19 | 237 | 12.9 | 27.4 | 0.00 | 0.00 | 0.00 | 48 | 1010.9 |
| 20260508181139 | 18 | 227 | 11.3 | 27.4 | 0.00 | 0.00 | 0.00 | 48 | 1010.9 |
| 20260508180644 | 18 | 245 | 12.9 | 24.1 | 0.00 | 0.00 | 0.00 | 48 | 1011.1 |
| 20260508180140 | 18 | 237 | 14.5 | 27.4 | 0.00 | 0.00 | 0.00 | 47 | 1011.2 |
| 20260508175638 | 18 | 242 | 14.5 | 27.4 | 0.00 | 0.00 | 0.00 | 48 | 1011.2 |
| 20260508175138 | 18 | 243 | 14.5 | 25.7 | 0.00 | 0.00 | 0.00 | 49 | 1011.3 |
| 20260508174643 | 18 | 207 | 12.9 | 24.1 | 0.00 | 0.00 | 0.00 | 49 | 1011.3 |
| 20260508174638 | 18 | 217 | 14.5 | 25.7 | 0.00 | 0.00 | 0.00 | 47 | 1011.3 |
| 20260508173637 | 18 | 257 | 14.5 | 27.4 | 0.00 | 0.00 | 0.00 | 50 | 1011.4 |
| 20260508173138 | 18 | 232 | 16.1 | 27.4 | 0.00 | 0.00 | 0.00 | 49 | 1011.6 |
| 20260508172637 | 18 | 241 | 17.7 | 33.8 | 0.00 | 0.00 | 0.00 | 50 | 1011.8 |
| 20260508172137 | 18 | 240 | 19.3 | 33.8 | 0.00 | 0.00 | 0.00 | 48 | 1011.8 |
| 20260508171638 | 18 | 223 | 19.3 | 35.4 | 0.00 | 0.00 | 0.00 | 47 | 1011.7 |
| 20260508171137 | 19 | 217 | 17.7 | 35.4 | 0.00 | 0.00 | 0.00 | 48 | 1012.0 |
| 20260508170635 | 19 | 225 | 14.5 | 30.6 | 0.00 | 0.00 | 0.00 | 48 | 1012.0 |
| 20260508170135 | 19 | 244 | 14.5 | 27.4 | 0.00 | 0.00 | 0.00 | 52 | 1012.1 |
| 20260508165635 | 19 | 227 | 16.1 | 27.4 | 0.00 | 0.00 | 0.00 | 49 | 1012.2 |
| 20260508165140 | 19 | 204 | 12.9 | 25.7 | 0.00 | 0.00 | 0.00 | 51 | 1012.4 |
| 20260508165136 | 19 | 213 | 14.5 | 25.7 | 0.00 | 0.00 | 0.00 | 51 | 1012.3 |
| 20260508164136 | 18 | 234 | 14.5 | 25.7 | 0.00 | 0.00 | 0.00 | 51 | 1012.4 |
| 20260508163636 | 18 | 232 | 14.5 | 25.7 | 0.00 | 0.00 | 0.00 | 51 | 1012.4 |
| 20260508163135 | 18 | 205 | 14.5 | 27.4 | 0.00 | 0.00 | 0.00 | 52 | 1012.5 |
| 20260508162635 | 18 | 246 | 16.1 | 27.4 | 0.00 | 0.00 | 0.00 | 52 | 1012.5 |
| 20260508162134 | 18 | 240 | 17.7 | 32.2 | 0.00 | 0.00 | 0.00 | 53 | 1012.6 |
| 20260508161634 | 18 | 242 | 19.3 | 32.2 | 0.00 | 0.00 | 0.00 | 49 | 1012.6 |
| 20260508161133 | 18 | 225 | 16.1 | 27.4 | 0.00 | 0.00 | 0.00 | 50 | 1012.7 |
| 20260508160633 | 18 | 227 | 14.5 | 25.7 | 0.00 | 0.00 | 0.00 | 53 | 1012.8 |
| 20260508160132 | 18 | 236 | 14.5 | 25.7 | 0.00 | 0.00 | 0.00 | 51 | 1012.9 |
| 20260508155633 | 18 | 209 | 14.5 | 30.6 | 0.00 | 0.00 | 0.00 | 53 | 1012.9 |
| 20260508155134 | 17 | 204 | 16.1 | 30.6 | 0.00 | 0.00 | 0.00 | 54 | 1012.9 |
| 20260508154633 | 17 | 232 | 19.3 | 29.0 | 0.00 | 0.00 | 0.00 | 52 | 1012.9 |
| 20260508154133 | 17 | 244 | 17.7 | 29.0 | 0.00 | 0.00 | 0.00 | 51 | 1013.0 |
| 20260508153633 | 17 | 242 | 16.1 | 24.1 | 0.00 | 0.00 | 0.00 | 53 | 1013.0 |
| 20260508153133 | 17 | 242 | 14.5 | 25.7 | 0.00 | 0.00 | 0.00 | 54 | 1013.0 |
| 20260508152630 | 17 | 219 | 14.5 | 25.7 | 0.00 | 0.00 | 0.00 | 54 | 1013.1 |
| 20260508152131 | 16 | 216 | 16.1 | 27.4 | 0.00 | 0.00 | 0.00 | 54 | 1013.2 |
| 20260508151630 | 16 | 235 | 17.7 | 27.4 | 0.00 | 0.00 | 0.00 | 51 | 1013.2 |
| 20260508151131 | 17 | 242 | 16.1 | 27.4 | 0.00 | 0.00 | 0.00 | 52 | 1013.3 |
| 20260508150631 | 16 | 235 | 14.5 | 24.1 | 0.00 | 0.00 | 0.00 | 54 | 1013.2 |
| 20260508150131 | 16 | 215 | 12.9 | 25.7 | 0.00 | 0.00 | 0.00 | 55 | 1013.2 |
| 20260508145632 | 16 | 231 | 12.9 | 25.7 | 0.00 | 0.00 | 0.00 | 53 | 1013.3 |
| 20260508145130 | 15 | 254 | 12.9 | 27.4 | 0.00 | 0.00 | 0.00 | 54 | 1013.3 |
| 20260508144631 | 16 | 234 | 14.5 | 27.4 | 0.00 | 0.00 | 0.00 | 54 | 1013.4 |
| 20260508144243 | 16 | 257 | 16.1 | 33.8 | 0.00 | 0.00 | 0.00 | 53 | 1013.6 |
| 20260508144135 | 16 | 248 | 14.5 | 30.6 | 0.00 | 0.00 | 0.00 | 54 | 1013.6 |
| 20260508144130 | 16 | 246 | 16.1 | 30.6 | 0.00 | 0.00 | 0.00 | 52 | 1013.5 |
| 20260508143235 | 15 | 231 | 16.1 | 33.8 | 0.00 | 0.00 | 0.00 | 53 | 1013.6 |
| 20260508142131 | 15 | 230 | 12.9 | 30.6 | 0.00 | 0.00 | 0.00 | 54 | 1013.7 |
| 20260508141631 | 15 | 234 | 12.9 | 25.7 | 0.00 | 0.00 | 0.00 | 55 | 1013.7 |
| 20260508141130 | 15 | 230 | 12.9 | 30.6 | 0.00 | 0.00 | 0.00 | 56 | 1013.7 |
| 20260508140635 | 15 | 256 | 12.9 | 24.1 | 0.00 | 0.00 | 0.00 | 57 | 1013.7 |
| 20260508140630 | 15 | 222 | 12.9 | 30.6 | 0.00 | 0.00 | 0.00 | 53 | 1013.7 |
| 20260508135631 | 15 | 229 | 12.9 | 24.1 | 0.00 | 0.00 | 0.00 | 56 | 1013.8 |
| 20260508135136 | 14 | 247 | 12.9 | 22.5 | 0.00 | 0.00 | 0.00 | 58 | 1013.8 |
| 20260508135132 | 14 | 225 | 12.9 | 22.5 | 0.00 | 0.00 | 0.00 | 57 | 1013.7 |
| 20260508134736 | 14 | 229 | 11.3 | 20.9 | 0.00 | 0.00 | 0.00 | 59 | 1013.7 |
| 20260508133635 | 13 | 236 | 9.7 | 17.7 | 0.00 | 0.00 | 0.00 | 62 | 1013.8 |
| 20260508133630 | 13 | 241 | 11.3 | 20.9 | 0.00 | 0.00 | 0.00 | 60 | 1013.8 |
| 20260508132631 | 13 | 225 | 9.7 | 20.9 | 0.00 | 0.00 | 0.00 | 64 | 1013.7 |
| 20260508132131 | 13 | 246 | 11.3 | 20.9 | 0.00 | 0.00 | 0.00 | 64 | 1013.7 |
| 20260508131631 | 12 | 219 | 9.7 | 19.3 | 0.00 | 0.00 | 0.00 | 64 | 1013.7 |
| 20260508131131 | 12 | 226 | 9.7 | 19.3 | 0.00 | 0.00 | 0.00 | 64 | 1013.6 |
| 20260508130631 | 12 | 196 | 8.0 | 16.1 | 0.00 | 0.00 | 0.00 | 68 | 1013.7 |
| 20260508130131 | 11 | 222 | 8.0 | 12.9 | 0.00 | 0.00 | 0.00 | 68 | 1013.6 |
| 20260508125635 | 11 | 211 | 8.0 | 12.9 | 0.00 | 0.00 | 0.00 | 69 | 1013.7 |
| 20260508125134 | 11 | 194 | 8.0 | 12.9 | 0.00 | 0.00 | 0.00 | 70 | 1013.7 |
| 20260508125130 | 11 | 188 | 9.7 | 12.9 | 0.00 | 0.00 | 0.00 | 70 | 1013.7 |
| 20260508124133 | 10 | 218 | 8.0 | 14.5 | 0.00 | 0.00 | 0.00 | 71 | 1013.7 |
| 20260508124129 | 11 | 227 | 8.0 | 11.3 | 0.00 | 0.00 | 0.00 | 71 | 1013.7 |
| 20260508123631 | 10 | 218 | 8.0 | 14.5 | 0.00 | 0.00 | 0.00 | 71 | 1013.7 |
| 20260508123128 | 10 | 212 | 8.0 | 14.5 | 0.00 | 0.00 | 0.00 | 71 | 1013.7 |
| 20260508122632 | 10 | 204 | 8.0 | 12.9 | 0.00 | 0.00 | 0.00 | 72 | 1013.7 |
| 20260508122127 | 10 | 217 | 8.0 | 12.9 | 0.00 | 0.00 | 0.00 | 73 | 1013.8 |
| 20260508121626 | 9 | 202 | 6.4 | 12.9 | 0.00 | 0.00 | 0.00 | 74 | 1013.8 |
| 20260508121127 | 9 | 209 | 6.4 | 12.9 | 0.00 | 0.00 | 0.00 | 74 | 1013.8 |
| 20260508120626 | 9 | 213 | 4.8 | 9.7 | 0.00 | 0.00 | 0.00 | 75 | 1013.7 |
| 20260508120131 | 9 | 216 | 6.4 | 12.9 | 0.00 | 0.00 | 0.00 | 75 | 1013.5 |
| 20260508120127 | 9 | 202 | 4.8 | 8.0 | 0.00 | 0.00 | 0.00 | 76 | 1013.6 |
| 20260508115126 | 8 | 222 | 6.4 | 12.9 | 0.00 | 0.00 | 0.00 | 75 | 1013.5 |
| 20260508114630 | 8 | 215 | 6.4 | 9.7 | 0.00 | 0.00 | 0.00 | 76 | 1013.5 |
| 20260508114126 | 8 | 188 | 4.8 | 8.0 | 0.00 | 0.00 | 0.00 | 76 | 1013.4 |
| 20260508113624 | 8 | 214 | 4.8 | 8.0 | 0.00 | 0.00 | 0.00 | 76 | 1013.4 |
| 20260508113128 | 8 | 217 | 3.2 | 6.4 | 0.00 | 0.00 | 0.00 | 76 | 1013.4 |
| 20260508113124 | 8 | 214 | 3.2 | 6.4 | 0.00 | 0.00 | 0.00 | 76 | 1013.4 |
| 20260508112124 | 8 | 209 | 3.2 | 6.4 | 0.00 | 0.00 | 0.00 | 75 | 1013.3 |
| 20260508111625 | 8 | 220 | 4.8 | 8.0 | 0.00 | 0.00 | 0.00 | 75 | 1013.3 |
| 20260508111124 | 8 | 225 | 6.4 | 8.0 | 0.00 | 0.00 | 0.00 | 75 | 1013.3 |
| 20260508110629 | 8 | 227 | 4.8 | 8.0 | 0.00 | 0.00 | 0.00 | 76 | 1013.0 |
| 20260508110624 | 8 | 232 | 4.8 | 9.7 | 0.00 | 0.00 | 0.00 | 75 | 1013.2 |
| 20260508110124 | 8 | 217 | 4.8 | 9.7 | 0.00 | 0.00 | 0.00 | 75 | 1013.1 |
| 20260508105729 | 8 | 209 | 4.8 | 8.0 | 0.00 | 0.00 | 0.00 | 76 | 1013.0 |
| 20260508105129 | 8 | 209 | 4.8 | 8.0 | 0.00 | 0.00 | 0.00 | 76 | 1013.0 |
| 20260508105123 | 8 | 215 | 4.8 | 8.0 | 0.00 | 0.00 | 0.00 | 76 | 1012.9 |
| 20260508104122 | 8 | 211 | 3.2 | 6.4 | 0.00 | 0.00 | 0.00 | 76 | 1013.0 |
| 20260508103622 | 7 | 218 | 3.2 | 4.8 | 0.00 | 0.00 | 0.00 | 75 | 1012.9 |
| 20260508103122 | 7 | 223 | 3.2 | 4.8 | 0.00 | 0.00 | 0.00 | 75 | 1013.0 |
| 20260508102622 | 7 | 223 | 3.2 | 4.8 | 0.00 | 0.00 | 0.00 | 75 | 1013.0 |
| 20260508102127 | 7 | 240 | 3.2 | 4.8 | 0.00 | 0.00 | 0.00 | 75 | 1013.1 |
| 20260508102122 | 7 | 221 | 3.2 | 4.8 | 0.00 | 0.00 | 0.00 | 75 | 1013.1 |
| 20260508101623 | 7 | 231 | 3.2 | 4.8 | 0.00 | 0.00 | 0.00 | 75 | 1013.1 |
| 20260508100622 | 7 | 229 | 3.2 | 6.4 | 0.00 | 0.00 | 0.00 | 76 | 1013.0 |
| 20260508100119 | 7 | 224 | 3.2 | 6.4 | 0.00 | 0.00 | 0.00 | 77 | 1013.1 |
| 20260508095624 | 7 | 223 | 3.2 | 4.8 | 0.00 | 0.00 | 0.00 | 76 | 1013.2 |
| 20260508095620 | 7 | 224 | 3.2 | 4.8 | 0.00 | 0.00 | 0.00 | 77 | 1013.1 |
| 20260508094620 | 7 | 223 | 3.2 | 4.8 | 0.00 | 0.00 | 0.00 | 76 | 1013.2 |
| 20260508094119 | 7 | 223 | 3.2 | 4.8 | 0.00 | 0.00 | 0.00 | 76 | 1013.2 |
| 20260508093620 | 7 | 227 | 3.2 | 4.8 | 0.00 | 0.00 | 0.00 | 75 | 1013.2 |
| 20260508093120 | 7 | 232 | 1.6 | 4.8 | 0.00 | 0.00 | 0.00 | 75 | 1013.2 |
| 20260508092620 | 7 | 240 | 0.0 | 4.8 | 0.00 | 0.00 | 0.00 | 75 | 1013.3 |
| 20260508092120 | 7 | 225 | 0.0 | 0.0 | 0.00 | 0.00 | 0.00 | 75 | 1013.1 |
| 20260508091620 | 7 | 225 | 0.0 | 0.0 | 0.00 | 0.00 | 0.00 | 76 | 1013.2 |
| 20260508091118 | 7 | 225 | 0.0 | 1.6 | 0.00 | 0.00 | 0.00 | 76 | 1013.2 |
| 20260508090619 | 6 | 225 | 0.0 | 1.6 | 0.00 | 0.00 | 0.00 | 77 | 1013.3 |
| 20260508090117 | 6 | 225 | 0.0 | 1.6 | 0.00 | 0.00 | 0.00 | 78 | 1013.3 |
| 20260508085618 | 6 | 225 | 0.0 | 3.2 | 0.00 | 0.00 | 0.00 | 78 | 1013.2 |
| 20260508085118 | 6 | 225 | 0.0 | 3.2 | 0.00 | 0.00 | 0.00 | 79 | 1013.3 |
| 20260508084617 | 6 | 225 | 0.0 | 1.6 | 0.00 | 0.00 | 0.00 | 78 | 1013.3 |
| 20260508084118 | 6 | 225 | 0.0 | 1.6 | 0.00 | 0.00 | 0.00 | 77 | 1013.3 |
| 20260508083618 | 6 | 225 | 0.0 | 1.6 | 0.00 | 0.00 | 0.00 | 76 | 1013.3 |
| 20260508083117 | 6 | 225 | 0.0 | 1.6 | 0.00 | 0.00 | 0.00 | 76 | 1013.3 |
| 20260508082618 | 6 | 225 | 0.0 | 0.0 | 0.00 | 0.00 | 0.00 | 75 | 1013.1 |
| 20260508082117 | 6 | 225 | 0.0 | 0.0 | 0.00 | 0.00 | 0.00 | 74 | 1013.2 |
| 20260508081619 | 7 | 225 | 0.0 | 0.0 | 0.00 | 0.00 | 0.00 | 74 | 1013.1 |
| 20260508081614 | 7 | 225 | 0.0 | 1.6 | 0.00 | 0.00 | 0.00 | 73 | 1013.1 |
| 20260508080615 | 7 | 225 | 1.6 | 3.2 | 0.00 | 0.00 | 0.00 | 73 | 1013.1 |
| 20260508080114 | 7 | 225 | 1.6 | 4.8 | 0.00 | 0.00 | 0.00 | 73 | 1013.1 |
| 20260508075614 | 7 | 225 | 0.0 | 4.8 | 0.00 | 0.00 | 0.00 | 74 | 1013.1 |
| 20260508075113 | 7 | 237 | 0.0 | 1.6 | 0.00 | 0.00 | 0.00 | 73 | 1013.0 |
| 20260508074615 | 7 | 237 | 0.0 | 0.0 | 0.00 | 0.00 | 0.00 | 72 | 1013.0 |
| 20260508074113 | 7 | 237 | 0.0 | 0.0 | 0.00 | 0.00 | 0.00 | 72 | 1013.1 |
| 20260508073618 | 7 | 237 | 1.6 | 3.2 | 0.00 | 0.00 | 0.00 | 71 | 1013.0 |
| 20260508073614 | 7 | 237 | 0.0 | 3.2 | 0.00 | 0.00 | 0.00 | 72 | 1013.0 |
| 20260508072613 | 7 | 237 | 1.6 | 3.2 | 0.00 | 0.00 | 0.00 | 71 | 1013.1 |
| 20260508072113 | 7 | 237 | 1.6 | 3.2 | 0.00 | 0.00 | 0.00 | 71 | 1013.2 |
| 20260508071614 | 7 | 237 | 1.6 | 3.2 | 0.00 | 0.00 | 0.00 | 71 | 1013.2 |
| 20260508071117 | 7 | 237 | 0.0 | 1.6 | 0.00 | 0.00 | 0.00 | 71 | 1013.2 |
| 20260508071113 | 7 | 237 | 0.0 | 3.2 | 0.00 | 0.00 | 0.00 | 71 | 1013.2 |
| 20260508070114 | 7 | 237 | 1.6 | 3.2 | 0.00 | 0.00 | 0.00 | 71 | 1013.1 |
| 20260508065614 | 7 | 237 | 1.6 | 3.2 | 0.00 | 0.00 | 0.00 | 71 | 1013.2 |
| 20260508065114 | 7 | 232 | 1.6 | 4.8 | 0.00 | 0.00 | 0.00 | 71 | 1013.4 |
| 20260508064613 | 7 | 228 | 3.2 | 4.8 | 0.00 | 0.00 | 0.00 | 72 | 1013.4 |
| 20260508064111 | 7 | 225 | 3.2 | 4.8 | 0.00 | 0.00 | 0.00 | 72 | 1013.5 |
| 20260508063614 | 7 | 225 | 1.6 | 3.2 | 0.00 | 0.00 | 0.00 | 72 | 1013.6 |
| 20260508063609 | 7 | 219 | 1.6 | 4.8 | 0.00 | 0.00 | 0.00 | 72 | 1013.6 |
| 20260508062609 | 7 | 225 | 1.6 | 3.2 | 0.00 | 0.00 | 0.00 | 72 | 1013.6 |
| 20260508062109 | 7 | 225 | 1.6 | 3.2 | 0.00 | 0.00 | 0.00 | 72 | 1013.7 |
| 20260508061609 | 7 | 244 | 1.6 | 3.2 | 0.00 | 0.00 | 0.00 | 72 | 1013.7 |
| 20260508061110 | 7 | 244 | 0.0 | 1.6 | 0.00 | 0.00 | 0.00 | 72 | 1013.7 |
| 20260508060609 | 7 | 244 | 0.0 | 1.6 | 0.00 | 0.00 | 0.00 | 72 | 1013.7 |
| 20260508060113 | 7 | 244 | 0.0 | 1.6 | 0.00 | 0.00 | 0.00 | 72 | 1013.7 |
| 20260508060109 | 7 | 244 | 0.0 | 1.6 | 0.00 | 0.00 | 0.00 | 72 | 1013.6 |
| 20260508055107 | 8 | 244 | 0.0 | 3.2 | 0.00 | 0.00 | 0.00 | 71 | 1013.7 |
| 20260508054608 | 8 | 244 | 1.6 | 3.2 | 0.00 | 0.00 | 0.00 | 70 | 1013.7 |
| 20260508054107 | 8 | 244 | 1.6 | 4.8 | 0.00 | 0.00 | 0.00 | 69 | 1013.8 |
| 20260508053608 | 8 | 244 | 1.6 | 4.8 | 0.00 | 0.00 | 0.00 | 69 | 1013.7 |
| 20260508053108 | 8 | 242 | 1.6 | 4.8 | 0.00 | 0.00 | 0.00 | 69 | 1013.7 |
| 20260508052611 | 8 | 240 | 3.2 | 4.8 | 0.00 | 0.00 | 0.00 | 68 | 1013.7 |
| 20260508052607 | 8 | 243 | 3.2 | 4.8 | 0.00 | 0.00 | 0.00 | 68 | 1013.7 |
| 20260508051607 | 8 | 230 | 3.2 | 4.8 | 0.00 | 0.00 | 0.00 | 68 | 1013.6 |
| 20260508051108 | 8 | 222 | 3.2 | 4.8 | 0.00 | 0.00 | 0.00 | 68 | 1013.7 |
| 20260508050710 | 8 | 225 | 1.6 | 4.8 | 0.00 | 0.00 | 0.00 | 67 | 1013.7 |
| 20260508050609 | 8 | 227 | 3.2 | 4.8 | 0.00 | 0.00 | 0.00 | 67 | 1013.7 |
| 20260508050605 | 8 | 221 | 1.6 | 4.8 | 0.00 | 0.00 | 0.00 | 70 | 1013.7 |
| 20260508045104 | 8 | 220 | 1.6 | 4.8 | 0.00 | 0.00 | 0.00 | 67 | 1013.7 |
| 20260508044603 | 8 | 215 | 1.6 | 4.8 | 0.00 | 0.00 | 0.00 | 68 | 1013.6 |
| 20260508044103 | 8 | 213 | 1.6 | 4.8 | 0.00 | 0.00 | 0.00 | 68 | 1013.6 |
| 20260508043602 | 8 | 215 | 1.6 | 3.2 | 0.00 | 0.00 | 0.00 | 67 | 1013.6 |
| 20260508043103 | 8 | 214 | 1.6 | 3.2 | 0.00 | 0.00 | 0.00 | 66 | 1013.5 |
| 20260508042603 | 9 | 214 | 1.6 | 3.2 | 0.00 | 0.00 | 0.00 | 66 | 1013.6 |
| 20260508042102 | 9 | 215 | 1.6 | 3.2 | 0.00 | 0.00 | 0.00 | 65 | 1013.5 |
| 20260508041603 | 9 | 215 | 1.6 | 3.2 | 0.00 | 0.00 | 0.00 | 65 | 1013.5 |
| 20260508041103 | 8 | 215 | 3.2 | 3.2 | 0.00 | 0.00 | 0.00 | 66 | 1013.5 |
| 20260508040600 | 8 | 212 | 3.2 | 4.8 | 0.00 | 0.00 | 0.00 | 67 | 1013.5 |
| 20260508040101 | 8 | 212 | 3.2 | 4.8 | 0.00 | 0.00 | 0.00 | 67 | 1013.5 |
| 20260508035601 | 8 | 211 | 3.2 | 6.4 | 0.00 | 0.00 | 0.00 | 67 | 1013.4 |
| 20260508035100 | 8 | 219 | 4.8 | 6.4 | 0.00 | 0.00 | 0.00 | 68 | 1013.5 |
| 20260508034601 | 8 | 212 | 4.8 | 6.4 | 0.00 | 0.00 | 0.00 | 68 | 1013.5 |
| 20260508034100 | 8 | 217 | 3.2 | 4.8 | 0.00 | 0.00 | 0.00 | 67 | 1013.4 |
| 20260508033601 | 8 | 217 | 3.2 | 3.2 | 0.00 | 0.00 | 0.00 | 67 | 1013.5 |
| 20260508033100 | 9 | 217 | 3.2 | 3.2 | 0.00 | 0.00 | 0.00 | 66 | 1013.5 |
| 20260508032706 | 9 | 218 | 3.2 | 4.8 | 0.00 | 0.00 | 0.00 | 62 | 1013.6 |
| 20260508032605 | 9 | 218 | 3.2 | 4.8 | 0.00 | 0.00 | 0.00 | 63 | 1013.5 |
| 20260508032601 | 9 | 217 | 3.2 | 4.8 | 0.00 | 0.00 | 0.00 | 64 | 1013.5 |
| 20260508031105 | 9 | 218 | 3.2 | 6.4 | 0.00 | 0.00 | 0.00 | 64 | 1013.4 |
| 20260508031101 | 9 | 218 | 3.2 | 6.4 | 0.00 | 0.00 | 0.00 | 63 | 1013.5 |
| 20260508025601 | 9 | 221 | 4.8 | 6.4 | 0.00 | 0.00 | 0.00 | 67 | 1013.4 |
| 20260508025100 | 9 | 221 | 4.8 | 6.4 | 0.00 | 0.00 | 0.00 | 67 | 1013.4 |
| 20260508024605 | 9 | 226 | 4.8 | 6.4 | 0.00 | 0.00 | 0.00 | 64 | 1013.4 |
| 20260508024601 | 9 | 219 | 4.8 | 6.4 | 0.00 | 0.00 | 0.00 | 66 | 1013.3 |
| 20260508023604 | 9 | 226 | 4.8 | 6.4 | 0.00 | 0.00 | 0.00 | 64 | 1013.4 |
| 20260508023600 | 10 | 227 | 4.8 | 6.4 | 0.00 | 0.00 | 0.00 | 63 | 1013.4 |
| 20260508022606 | 8 | 229 | 3.2 | 6.4 | 0.00 | 0.00 | 0.00 | 69 | 1013.3 |
| 20260508022602 | 9 | 225 | 4.8 | 6.4 | 0.00 | 0.00 | 0.00 | 66 | 1013.3 |
| 20260508021601 | 9 | 237 | 1.6 | 3.2 | 0.00 | 0.00 | 0.00 | 68 | 1013.2 |
| 20260508021100 | 8 | 237 | 0.0 | 1.6 | 0.00 | 0.00 | 0.00 | 66 | 1013.3 |
| 20260508020559 | 8 | 237 | 0.0 | 0.0 | 0.00 | 0.00 | 0.00 | 67 | 1013.4 |
| 20260508020059 | 8 | 237 | 0.0 | 0.0 | 0.00 | 0.00 | 0.00 | 66 | 1013.4 |
| 20260508015604 | 8 | 237 | 0.0 | 0.0 | 0.00 | 0.00 | 0.00 | 68 | 1013.4 |
| 20260508015559 | 8 | 237 | 0.0 | 0.0 | 0.00 | 0.00 | 0.00 | 67 | 1013.4 |
| 20260508014558 | 8 | 237 | 0.0 | 0.0 | 0.00 | 0.00 | 0.00 | 67 | 1013.4 |
| 20260508014058 | 8 | 237 | 0.0 | 0.0 | 0.00 | 0.00 | 0.00 | 67 | 1013.3 |